Regional Weather Roundup
Issued by NWS Upton, NY

Current Version | Previous Version | Text Only | Print | Product List | Glossary Off
Versions: 1 2 3 4 5 6 7 8 9 10 11 12 13 14 15 16 17 18 19 20 21 22 23 24 25 26 27 28 29 30 31 32 33 34 35 36 37 38 39 40 41 42 43 44 45 46 47 48 49 50
124 ASUS41 KOKX 250904 RWROKX REGIONAL WEATHER ROUNDUP NATIONAL WEATHER SERVICE NEW YORK NY 500 AM EDT WED MAY 25 2016 NOTE: "FAIR" INDICATES FEW OR NO CLOUDS BELOW 12,000 FEET WITH NO SIGNIFICANT WEATHER AND/OR OBSTRUCTIONS TO VISIBILITY. NYZ071-072-176-178-NJZ106-104-251000- NEW YORK CITY METRO AREA CITY SKY/WX TMP DP RH WIND PRES REMARKS CENTRAL PARK CLEAR 61 51 70 W3 30.05R LAGUARDIA APRT CLEAR 63 56 78 CALM 30.02R KENNEDY INTL CLEAR 60 53 77 W5 30.03R NEWARK/LIBERTY CLEAR 58 51 78 CALM 30.02R BRNX BOT. GARD N/A 59 50 72 CALM 30.04R TETERBORO CLEAR 55 51 86 CALM 30.01R $$ NYZ177-179-078>081-251000- LONG ISLAND NEW YORK CITY SKY/WX TMP DP RH WIND PRES REMARKS FARMINGDALE CLEAR 57 54 89 NW3 30.02R ISLIP FOG 54 54 100 CALM 30.01R VSB 3/4 SHIRLEY N/A 53 52 96 CALM 30.02R FOG RIVERHEAD N/A 50 50 100 CALM 30.00S WESTHAMPTON CLOUDY 42 42 100 CALM 30.03R FOG EAST HAMPTON CLOUDY 47 47 99 CALM 30.01S FOG MONTAUK POINT N/A 55 55 100 CALM 30.03R $$ NYZ052-065-067-251000- HUDSON VALLEY CITY SKY/WX TMP DP RH WIND PRES REMARKS WHITE PLAINS CLEAR 52 51 97 W3 30.01S NEWBURGH CLEAR 55 54 94 W8 30.03R MONTGOMERY CLEAR 46 45 96 SW6 30.03R POUGHKEEPSIE CLEAR 51 48 89 CALM 30.01R ALBANY PTCLDY 53 52 96 S5 30.00R FOG $$ NJZ001-105-106-008-010-013-015-019>022-104-251000- NEW JERSEY CITY SKY/WX TMP DP RH WIND PRES REMARKS NEWARK/LIBERTY CLEAR 58 51 78 CALM 30.02R TETERBORO CLEAR 55 51 86 CALM 30.01R CALDWELL CLEAR 54 50 86 CALM 30.03R MORRISTOWN PTCLDY 46 45 93 CALM 30.03S SOMERVILLE CLEAR 48 46 93 CALM 30.02S SUSSEX LGT RAIN 47 45 93 CALM 30.05R ANDOVER N/A 50 49 96 CALM 30.05S TRENTON CLEAR 56 51 84 CALM 30.04R MILLVILLE CLEAR 54 51 90 CALM 30.05R ATLANTIC CITY CLEAR 58 52 80 W5 30.04R WRIGHTSTOWN NOT AVBL TOMS RIVER CLEAR 48 45 87 CALM 30.03S BELMAR CLEAR 54 52 93 NW5 30.04R $$ PAZ047>061-062-071-251000- EASTERN PENNSYLVANIA CITY SKY/WX TMP DP RH WIND PRES REMARKS PHILADELPHIA PTCLDY 59 52 77 CALM 30.06S ALLENTOWN CLEAR 52 49 89 CALM 30.06R SCRANTON CLEAR 51 42 71 E3 30.07R $$ CTZ002-004>006-009-010-012-RIZ004-006-007-MAZ004-011-015-251000- SOUTHERN NEW ENGLAND IN CT CITY SKY/WX TMP DP RH WIND PRES REMARKS BRADLEY INTL FOG 53 52 96 SW3 29.99R VSB 1/4 HARTFORD PTCLDY 55 53 93 CALM 30.00S DANBURY CLEAR 50 48 93 SW5 30.02S WTRBRY/OXFORD N/A 54 50 87 CALM 30.04R VSB 1/2 BRIDGEPORT FOG 56 54 93 CALM 30.01R VSB 1/4 MERIDEN FOG 52 51 97 CALM 30.01S VSB 1/4 NEW HAVEN FOG 51 50 96 CALM 30.01S VSB 3/4 CHESTER FAIR 57 57 100 CALM 30.01S GROTON FOG 54 54 100 CALM 30.01S VSB 1/4 WILLIMANTIC FOG 53 51 93 CALM 30.01S VSB 1/4 IN RI CITY SKY/WX TMP DP RH WIND PRES REMARKS PROVIDENCE CLOUDY 56 54 93 W3 30.01R BLOCK ISLAND FOG 55 54 96 W7 30.02S VSB 1/4 WESTERLY FOG 55 52 89 CALM 30.02R VSB 1/4 IN MA CITY SKY/WX TMP DP RH WIND PRES REMARKS BOSTON CLOUDY 54 52 93 CALM 30.00S WORCESTER FOG 51 50 96 W10 29.99F VSB 1/4 WESTFIELD FOG 51 50 96 CALM 29.99S VSB 1/2 PROVINCETOWN LGT RAIN 50 50 100 NW8 30.00R FOG NANTUCKET CLOUDY 54 51 90 NW6 29.99R $$ ANZ330-335-338-340-345-350-353-355-251000- COASTAL MARINE OBSERVATIONS STATION/POSITION TIME SKY/WX TEMP WIND PRES VSBY WAVE AIR SEA DIR/SP/G HT/PER (UTC) (F) (DEG/KT/KT) (MB) (MI) (FT/S) NY HARB ENTRANCE 0750 59 58 270/ 8/ 8 1015.8 3/ 9 20S FIRE ISLAND 0750 57 55 270/ 4/ 4 1016.2 3/ 8 GREAT SOUTH BAY 0800 61 64 260/ 2/ 2 N/A 23 SSW MONTAUK P 0750 55 55 250/ 2/ 4 1015.8 3/ 8 15 E BARNEGAT LI 0822 55 N/A 3/ 8 HUDSON CANYON 0750 56 53 1016.0 3/ 9 KINGS POINT 0800 57 56 1016.0 EXECUTION ROCKS NOT AVBL CENTRAL LI SOUND 0800 56 280/ 4/ 4 N/A 0 EASTERN LI SOUND 0800 52 51 260/ 2/ 2 N/A ROBBINS REEF 0818 62 280/ 4/ 5 1015.9 $$ >>>>>>>>>>>>>>>>>>>>>>>>>>>> KEY <<<<<<<<<<<<<<<<<<<<<<<<<<< > < > SKY/WX - SKY CONDITION/PRESENT WEATHER < > TMP - TEMPERATURE IN FAHRENHEIT < > DP - DEWPOINT IN FAHRENHEIT < > RH - RELATIVE HUMIDITY IN PERCENT < > WIND - DIRECTION AND SPEED IN MPH < > PRES - MEAN SEA LEVEL PRESSURE IN INCHES OF HG < > WCI - WIND CHILL INDEX < > VSB - VISIBILITY IN MILES < > HX - HEAT INDEX < > TC - TEMPERATURE IN CELSIUS < > VRB - VARIABLE WIND DIRECTION < > < >>>>>>>>>>>>>>>>>>>>>>>>>>>> KEY <<<<<<<<<<<<<<<<<<<<<<<<<<<

USA.gov is the U.S. government's official web portal to all federal, state and local government web resources and services.